Theta_e
307 316 321 325 323 322 319 323 326 327 326 320 319 319 330 341 342 341 333 333 335 335 337 342 337 336 335 336 335 333 330 331 337 337 337 337 336 336 335 332 329 328 327 326 327 326 326 326 325
314 320 325 325 319 318 317 323 327 323 319 318 321 326 328 340 325 328 329 324 335 336 337 342 340 337 335 334 331 331 328 328 334 336 336 335 336 335 335 332 329 328 327 327 328 325 325 324 326
319 320 324 321 319 316 317 322 319 318 316 317 321 336 328 320 318 315 315 325 335 337 338 340 340 339 337 334 329 329 332 332 334 336 335 334 335 335 334 331 327 327 327 327 326 325 325 325 324
320 323 322 322 319 323 323 318 316 316 317 316 318 327 316 314 314 313 319 327 336 337 338 339 337 337 337 336 331 328 331 332 332 332 333 333 334 333 330 328 326 325 325 325 325 324 324 324 323
317 321 319 319 321 323 317 315 314 315 315 315 320 323 329 315 312 312 314 325 332 336 336 339 336 337 335 335 333 327 330 332 332 332 333 334 332 329 328 325 326 325 325 325 324 325 324 323 321
318 316 315 317 317 317 315 314 313 315 314 314 317 321 325 315 312 311 311 315 321 332 335 337 337 336 335 334 333 330 328 330 332 332 332 332 330 327 325 323 325 325 324 324 324 324 324 320 316
315 313 314 314 315 315 315 314 314 314 314 314 314 320 320 316 310 310 311 312 315 319 330 333 335 336 335 333 333 332 328 328 332 330 330 331 329 326 325 323 324 324 324 324 324 324 322 317 315
314 314 314 313 314 315 314 314 313 314 314 311 313 317 316 311 309 309 311 312 312 314 313 322 329 332 335 335 333 332 329 328 329 331 330 330 328 326 326 324 324 323 324 323 324 324 320 317 316
312 313 313 314 314 314 314 315 314 311 313 313 312 312 310 308 308 309 310 311 311 312 313 312 317 323 331 333 333 331 329 328 330 331 331 330 328 328 326 324 324 323 323 324 323 322 319 317 316
313 312 314 314 315 315 315 314 314 314 314 314 313 311 309 308 308 309 309 310 310 311 311 312 312 312 317 328 332 332 332 333 332 332 333 331 330 329 326 325 324 322 322 323 322 322 321 318 319
313 313 314 314 315 314 315 314 313 314 316 313 311 310 309 308 308 308 309 309 309 310 310 311 312 312 311 314 327 331 331 332 331 330 331 332 330 327 324 325 324 323 322 321 322 321 321 321 320
315 314 313 314 313 314 314 313 314 313 312 309 308 308 308 308 308 308 308 308 309 309 310 311 311 311 312 313 314 325 331 331 330 330 331 331 330 328 325 325 323 323 321 320 322 322 321 320 319
315 314 314 313 313 313 312 313 313 313 309 308 307 308 308 308 308 307 308 309 309 310 310 310 310 310 311 312 314 316 326 331 330 329 330 330 329 329 324 323 323 323 321 321 321 322 320 319 318
314 314 314 313 313 313 313 313 313 312 308 308 308 308 308 308 307 307 308 308 308 308 309 309 309 310 311 311 313 315 320 328 331 329 330 329 329 328 325 324 323 323 322 321 321 321 319 319 319
312 315 313 313 313 314 311 314 315 309 308 309 308 308 308 307 307 306 305 307 307 307 307 308 308 308 309 309 311 313 316 322 329 330 329 325 323 328 326 324 323 322 322 321 321 321 320 321 320
313 313 315 313 313 313 312 315 312 308 309 309 308 307 307 307 306 306 305 306 306 306 306 306 307 308 308 308 309 310 314 319 326 330 329 326 324 324 326 324 323 322 321 321 321 321 321 321 321
313 314 313 313 312 313 314 315 312 308 308 309 308 308 307 306 305 305 305 305 305 305 306 306 305 306 307 308 308 309 311 317 322 329 328 325 323 323 325 323 322 322 321 321 322 322 322 322 322
318 315 312 313 312 313 314 316 313 309 308 309 308 307 307 306 305 305 303 303 304 304 304 304 304 305 306 307 308 309 311 316 321 326 328 326 325 324 323 323 323 322 321 321 322 323 322 322 321
313 314 314 312 311 312 314 315 314 309 308 308 307 307 306 306 305 304 302 301 302 303 302 302 303 303 305 306 308 310 315 320 323 326 327 327 325 324 325 325 323 322 321 322 323 323 323 322 321
313 314 314 311 309 312 314 316 313 309 309 308 307 306 305 305 303 303 303 302 300 301 301 302 303 303 303 305 308 309 315 322 325 326 327 327 326 325 324 324 323 321 320 322 323 322 322 321 322
313 316 314 313 311 311 313 316 313 310 308 308 307 306 304 303 301 302 303 303 301 301 301 303 302 302 303 305 308 310 314 318 326 326 327 326 326 324 324 324 324 322 320 322 322 322 322 322 323
309 309 310 312 313 318 312 330 310 310 309 308 307 306 304 302 301 301 303 303 301 301 302 303 302 302 302 306 310 311 317 323 325 326 325 325 325 325 324 324 324 323 320 321 322 322 322 322 323
308 308 311 311 314 315 315 318 321 306 311 310 308 305 302 301 300 300 300 301 301 300 300 302 302 302 301 306 311 313 317 322 324 325 325 325 324 324 324 323 323 323 322 321 321 321 321 321 320
308 310 309 312 315 319 311 314 324 315 313 310 307 304 301 300 300 299 299 299 299 299 299 300 302 302 300 304 311 316 317 317 317 317 317 317 321 323 322 321 321 322 321 320 318 317 315 314 314
309 309 318 318 317 318 309 312 320 310 308 309 307 304 300 300 299 299 299 298 298 298 298 298 302 301 301 301 305 310 312 313 313 312 312 313 313 314 313 315 314 313 313 313 313 312 311 311 310
310 309 310 315 313 311 307 314 315 307 306 306 306 302 299 299 299 298 297 297 297 298 298 298 299 301 301 300 301 304 307 309 309 310 310 310 310 310 311 312 312 312 311 311 311 311 311 311 310
310 310 306 309 306 313 310 309 308 307 307 306 306 301 300 299 298 298 297 296 297 297 298 297 298 302 303 302 301 302 302 303 305 306 307 307 308 308 309 309 309 309 308 307 308 310 311 310 309
308 307 312 311 314 313 308 307 310 309 309 307 305 303 300 299 298 298 297 296 296 296 297 298 297 297 301 303 302 302 303 304 305 305 306 307 308 309 309 310 310 311 310 309 308 306 305 305 302
309 310 308 308 309 309 310 311 308 309 309 309 307 304 300 299 298 297 296 295 295 296 297 297 298 297 297 299 300 303 301 301 304 303 304 306 306 307 307 307 307 306 306 304 304 300 299 298 296
306 309 308 309 309 310 310 310 304 307 307 308 308 304 300 299 298 297 296 295 295 295 296 296 297 297 297 297 297 297 298 298 298 299 300 301 301 301 300 299 299 298 297 297 297 296 296 295 295
Wind_Speed
3 2 1 3 4 4 2 2 2 1 1 5 11 7 6 8 5 3 17 14 23 13 11 16 19 17 16 15 15 14 15 14 13 13 14 14 14 15 15 13 10 11 10 8 8 9 8 8 8
1 2 2 1 4 5 3 0 3 3 10 13 5 1 3 4 8 9 11 28 20 12 12 15 19 19 17 17 16 15 14 14 15 14 14 14 16 16 15 13 11 10 9 11 9 8 8 8 7
4 2 3 2 2 3 2 2 5 8 7 11 4 8 4 6 10 12 21 24 16 9 9 14 18 19 18 17 15 15 13 15 15 16 16 16 15 14 13 12 12 11 10 10 11 9 7 6 6
2 4 3 4 3 2 2 3 8 8 2 8 6 5 6 12 8 16 22 19 14 10 7 12 19 19 19 17 16 17 16 16 15 15 14 13 13 12 12 12 13 12 11 11 9 10 8 6 5
2 2 3 3 3 2 2 5 5 6 3 7 8 2 6 5 16 20 22 20 17 12 9 11 19 18 19 19 18 18 17 17 18 17 16 15 14 12 13 11 13 12 12 11 11 9 9 8 6
2 1 4 5 4 3 1 7 2 4 4 5 5 4 3 5 26 27 24 20 18 13 11 12 15 18 19 20 20 20 19 20 19 18 18 17 16 14 13 12 13 12 13 12 10 9 8 8 8
2 3 2 3 3 4 1 8 3 6 5 5 8 5 3 8 27 26 23 19 16 15 12 11 12 16 20 21 22 21 21 22 22 19 18 19 18 16 17 15 14 13 12 12 11 9 8 8 7
1 1 4 2 4 3 3 4 4 6 3 3 8 4 5 24 28 25 21 17 17 15 16 13 13 13 17 20 24 23 23 23 23 21 20 20 19 19 19 18 17 14 14 13 11 9 8 8 7
1 2 2 3 3 3 2 4 3 3 4 2 5 7 12 23 24 23 22 20 20 18 19 19 15 15 14 16 21 24 24 24 23 22 22 22 21 19 18 18 17 17 14 13 13 10 8 8 8
1 1 3 2 2 1 3 2 4 4 4 2 5 12 17 19 21 22 21 22 23 24 23 19 22 18 18 16 16 21 23 22 22 22 22 23 25 19 19 17 20 19 15 13 12 11 9 8 7
3 2 5 3 2 1 1 1 2 5 0 6 14 17 18 18 18 18 19 20 21 22 21 21 20 20 21 18 19 16 24 24 23 23 23 23 28 23 21 17 18 16 16 14 13 11 9 8 7
4 4 2 3 1 1 2 3 1 6 4 8 10 13 15 15 15 17 18 21 22 24 23 21 21 21 20 20 19 21 19 25 28 27 24 23 27 29 22 21 16 16 14 14 13 11 10 9 8
5 5 4 3 2 3 2 2 1 2 7 8 10 11 13 14 16 17 17 17 21 22 23 24 23 22 22 20 18 21 23 24 32 30 28 25 24 29 27 28 19 17 14 14 13 12 10 8 8
3 5 5 2 2 1 5 2 3 1 9 10 10 11 12 14 17 18 20 21 22 21 24 24 24 22 21 21 20 18 20 22 26 31 33 27 22 26 23 22 20 18 16 14 13 12 9 8 8
5 5 2 1 1 2 2 4 3 5 8 11 12 12 13 15 18 17 19 22 22 22 22 24 24 22 21 20 20 19 19 23 28 32 33 34 25 23 23 22 20 19 16 15 13 11 9 8 8
2 2 3 3 2 2 2 1 3 5 9 11 13 13 14 17 20 19 20 21 21 22 24 22 23 24 22 20 20 20 18 19 23 33 33 37 27 30 26 22 19 17 15 15 13 12 10 9 9
1 3 3 1 1 2 2 4 4 3 7 10 12 13 12 14 18 21 20 21 21 22 24 24 24 25 23 21 20 20 19 20 21 30 31 34 32 39 33 26 18 17 15 15 13 12 12 11 10
4 3 2 4 2 2 6 9 2 3 5 7 8 9 12 14 14 19 21 21 22 22 24 25 22 21 24 22 19 20 20 20 22 27 33 34 38 39 39 29 20 18 16 16 15 14 12 11 9
4 2 1 2 0 5 4 9 7 4 4 5 6 8 10 12 15 17 18 20 22 24 25 27 28 27 24 21 18 17 17 17 21 26 31 32 34 36 33 34 21 19 18 17 17 15 13 10 9
2 1 2 4 3 3 7 13 9 7 4 5 7 9 10 11 13 18 22 24 25 24 25 26 24 26 27 23 18 19 16 13 20 25 31 31 34 36 35 33 31 23 18 16 15 15 9 9 10
3 2 2 3 6 2 10 5 5 5 8 8 9 8 7 10 13 14 18 20 22 25 27 25 26 28 26 23 16 16 16 17 17 20 24 28 28 33 35 32 31 28 20 16 16 16 14 10 10
3 4 3 1 6 4 4 4 4 6 8 8 8 7 8 10 10 12 16 21 22 27 28 30 31 30 31 26 11 13 12 13 13 17 18 20 28 30 31 31 30 30 25 19 14 14 13 12 12
2 3 1 1 2 5 2 2 1 2 6 8 6 5 6 8 9 11 16 19 19 25 29 33 34 36 40 31 10 9 12 11 7 11 12 17 22 26 33 30 28 25 20 15 10 9 11 13 10
6 3 2 1 2 3 2 2 3 5 5 3 4 4 5 7 8 11 15 18 21 25 31 38 38 38 42 35 25 7 12 18 21 21 20 18 18 19 17 23 24 21 16 13 15 15 19 20 20
3 3 1 2 2 2 3 3 7 5 7 5 4 4 5 5 7 9 13 19 22 24 27 32 39 36 40 37 33 26 25 26 23 23 23 25 27 28 30 32 34 32 34 31 30 31 27 25 20
5 2 2 4 2 2 2 6 2 2 3 5 4 5 4 5 4 7 11 15 18 20 23 24 30 36 38 37 33 35 28 31 28 28 32 30 31 33 36 42 43 40 39 36 34 29 26 20 17
4 4 2 2 1 3 3 5 8 5 7 8 8 7 6 3 2 5 8 12 15 17 18 19 24 31 37 39 38 39 33 36 32 34 39 37 36 38 43 41 41 42 35 35 29 21 18 17 18
4 5 2 1 3 4 4 5 6 8 14 12 11 10 7 3 1 3 6 9 12 13 15 16 18 21 28 33 35 35 38 38 38 38 39 40 40 40 37 32 30 27 27 25 23 21 18 19 16
4 3 2 2 3 2 3 4 4 9 11 15 14 10 7 5 2 1 4 6 8 11 13 14 17 18 22 27 29 31 34 35 33 32 32 31 30 30 30 28 29 27 26 24 23 22 20 21 18
1 4 8 4 4 2 2 7 5 6 5 10 12 11 9 5 4 2 1 3 6 9 11 12 14 15 16 21 25 27 27 29 31 29 29 29 29 29 28 28 29 27 25 24 24 22 20 19 18
Wind_Direction
286 233 241 232 233 241 198 137 333 50 228 357 308 270 36 29 1 14 330 338 335 306 216 203 201 203 200 201 197 197 189 187 183 181 182 174 171 164 158 155 147 143 142 150 159 166 167 170 155
240 155 207 152 248 238 115 94 170 344 336 325 312 293 174 82 26 329 349 333 334 311 216 207 205 200 200 204 203 200 201 198 192 189 190 188 179 169 160 160 156 154 157 151 149 165 159 158 164
118 138 215 228 250 282 111 81 330 326 332 351 341 38 37 358 358 348 333 329 331 321 226 216 215 208 204 206 205 197 193 191 189 187 192 186 175 163 164 167 163 163 166 163 161 170 169 166 171
183 174 135 245 227 87 37 360 345 334 91 17 351 80 95 50 1 340 337 342 338 323 264 231 221 216 214 206 206 201 203 197 196 194 184 178 168 176 179 176 171 174 182 178 170 168 168 175 182
72 205 180 204 180 129 101 8 341 338 353 2 344 81 156 35 6 355 351 350 346 329 294 247 229 225 225 217 210 206 204 208 194 191 197 188 190 194 191 186 174 189 189 181 184 176 172 177 190
138 259 207 224 172 143 116 1 304 338 353 4 359 319 167 41 3 351 348 347 350 347 317 271 248 238 232 226 219 211 207 208 206 204 204 199 200 198 198 191 184 196 193 196 190 182 187 189 192
171 211 177 160 156 177 72 345 1 341 339 14 335 294 308 353 347 339 338 340 347 348 340 317 290 254 240 234 229 222 216 213 212 215 210 203 205 201 188 188 192 202 201 202 198 197 199 200 203
61 200 146 154 177 133 28 352 0 358 26 336 349 357 332 333 334 332 330 332 340 343 347 334 316 313 263 243 235 228 223 221 218 219 214 211 208 202 198 195 197 202 208 209 213 208 212 212 215
261 209 166 134 179 116 25 348 51 351 321 44 18 17 323 325 331 336 337 333 335 336 339 337 321 311 306 273 248 236 231 227 225 220 220 215 206 203 204 200 200 195 214 219 230 224 224 227 234
11 241 94 75 76 37 14 335 336 303 340 328 336 333 335 334 338 339 341 336 334 330 328 329 325 315 303 291 273 245 230 227 226 225 218 214 208 204 197 206 204 198 205 220 236 236 237 244 242
35 72 126 134 53 349 7 286 358 320 314 5 328 324 330 331 334 335 333 332 326 323 321 321 319 316 310 295 274 274 238 227 224 223 222 213 209 207 204 204 206 205 208 221 226 236 236 240 246
110 89 90 116 94 151 351 326 85 46 6 323 311 321 321 326 331 334 329 329 327 325 322 320 318 313 308 302 288 263 261 235 231 221 219 210 208 206 200 204 201 207 208 211 220 223 234 246 255
94 135 110 107 129 57 352 33 207 95 355 325 332 320 326 330 331 330 326 327 326 322 320 320 319 312 304 299 292 284 260 249 240 235 217 207 208 207 207 213 204 206 209 211 213 226 236 244 257
105 131 117 69 60 97 354 110 200 42 342 337 333 335 336 333 332 330 336 331 334 325 321 318 315 311 306 298 290 281 271 260 244 228 221 212 211 203 206 207 209 207 207 211 212 217 231 247 254
120 134 144 164 2 211 324 203 212 341 329 339 347 342 339 345 343 342 331 324 328 329 321 314 314 309 304 300 292 282 274 257 240 218 213 207 214 216 215 209 208 207 204 203 209 214 222 238 247
133 172 217 159 320 148 306 302 159 347 330 349 355 350 349 348 340 337 329 332 326 323 324 316 311 306 300 295 291 285 275 266 258 216 224 223 218 229 214 213 212 204 203 204 208 206 211 225 232
159 233 222 216 144 314 308 307 171 324 337 358 0 2 356 352 345 338 337 334 330 323 327 325 317 307 302 296 288 278 269 263 251 214 215 213 205 212 227 215 218 202 199 206 205 210 211 220 229
183 203 230 271 144 261 290 264 245 305 343 346 359 0 8 7 358 347 341 337 334 331 332 327 322 314 306 297 291 279 263 251 237 229 209 208 213 219 226 210 215 205 199 206 205 210 216 221 228
111 144 252 259 324 310 253 273 299 224 274 340 342 336 342 351 1 3 345 342 348 347 341 333 328 325 316 303 293 280 255 235 230 220 219 216 213 216 213 217 208 205 202 206 210 212 217 222 225
134 163 256 277 243 295 288 283 275 217 264 282 306 311 325 327 333 342 349 349 347 338 339 337 329 327 324 309 288 273 261 248 219 210 219 222 215 214 222 210 213 222 217 213 211 204 203 218 215
186 203 200 292 325 250 306 263 206 222 250 267 273 289 312 332 341 342 341 347 346 342 343 344 340 335 332 322 299 262 254 259 207 197 207 209 209 206 212 207 213 212 218 213 211 213 213 213 220
240 189 176 313 331 300 349 294 232 226 256 260 275 301 324 338 348 349 345 348 349 345 351 353 354 346 346 348 318 249 239 213 197 199 202 208 219 214 205 211 216 211 215 216 211 216 223 225 226
81 150 166 347 285 303 172 256 192 213 255 238 242 283 319 334 343 343 345 349 353 351 350 356 360 1 2 3 342 219 235 215 153 157 178 201 214 203 203 211 213 208 211 212 204 201 209 221 204
132 140 94 88 267 251 117 319 238 198 201 191 217 266 307 335 345 349 351 351 354 2 0 3 3 12 7 12 32 157 108 109 110 113 111 116 144 168 179 174 171 185 173 160 148 140 118 105 108
196 210 305 256 221 280 149 247 269 224 213 207 218 257 298 323 353 354 359 358 358 1 3 5 10 12 15 20 33 60 81 93 92 93 94 89 93 99 101 111 107 102 108 105 113 109 103 101 91
192 244 236 273 275 329 142 235 255 238 220 217 235 259 277 302 5 8 2 360 1 3 7 9 14 16 25 25 33 51 64 80 79 87 88 85 88 90 95 99 102 103 101 102 99 99 101 105 101
159 205 50 107 82 278 216 249 246 201 210 221 226 245 250 273 6 14 9 10 6 6 13 19 23 34 38 39 40 50 52 66 73 79 86 86 85 90 97 99 101 104 108 107 114 118 120 112 97
268 141 134 209 241 256 228 266 246 209 217 214 223 231 232 236 295 32 18 17 12 13 16 25 32 42 48 52 53 56 63 73 78 82 88 94 101 105 105 107 109 113 115 115 108 102 101 99 92
160 208 191 299 244 259 292 243 199 195 197 199 208 217 218 203 212 39 27 22 16 26 25 29 32 37 52 61 60 65 65 73 83 85 87 95 99 99 101 103 105 104 105 107 107 104 100 97 92
253 233 191 224 195 243 323 270 171 202 201 200 193 198 203 198 185 180 69 32 38 34 35 35 40 41 52 66 74 73 72 75 80 80 84 90 93 96 100 103 102 103 104 103 100 95 91 88 83